Weather in Tsarevo

Bulgaria     42°10′13″N   27°51′04″E
temp.,
°C
wind,
m/s
gust,
m/s
humid.,
%
clouds,
%
prec.,
mm/h
press.,
hPa
HPBL,
m
17 june, thu
thu1700:00+16wnw3492100 0.1 101590
03:00+14w349453 0.1 101593
06:00+14w379474 0.0 1015151
09:00+20nnw467392 0.0 1016611
12:00+23nnw576620 0.2 10161238
15:00+23nne35739 2.8 1016943
18:00+24nnw136112 0.9 1016927
21:00+19nnw01790 1.2 101611
18 june, fri
fri1800:00+17wsw338334 0.0 101636
03:00+16w3385100 0.0 101652
06:00+16w338559 0.0 101560
09:00+21w236987 0.0 1015349
12:00+24nw5765100 0.3 10141204
15:00+18w51094100 2.4 1014513
18:00+18wnw5994100 4.7 1013422
21:00+17w4994100 8.0 1013374
19 june, sat
sat1900:00+17wnw489497 0.3 1013343
03:00+17wnw499391 0.3 1012383
06:00+18wnw3793100 0.0 1012317
09:00+19wnw4688100 0.4 1012690
12:00+20nw368741 1.0 1012666
15:00+21nnw458655 3.4 1012783
18:00+22nw248021 1.3 1012689
21:00+19nnw119110 1.8 101221
20 june, sun
sun2000:00+17w22934 0.1 101336
03:00+16wnw23954 0.1 101277
06:00+16w229690 0.0 101370
09:00+19nw238574 0.0 1013391
12:00+21n337690 0.1 1013714
15:00+23ne336845 0.1 1012857
18:00+22ne22675 0.0 1012423
21:00+19wsw11841 0.1 101213
21 june, mon
mon2100:00+17wsw22917 1.9 101225
03:00+17w22940 1.9 101243
06:00+17w23940 0.1 101258
09:00+21nw24843 0.1 1013385
12:00+24ne347190 0.0 1013783
15:00+25ene326537 0.1 1012710
18:00+24ene216615 0.3 1012391
21:00+20ssw11824 0.3 101211